Time,TemperatureF,DewpointF,PressureIn,WindDirection,WindDirectionDegrees,WindSpeedMPH,WindSpeedGustMPH,Humidity,HourlyPrecipIn,Conditions,Clouds,dailyrainin,SoftwareType,DateUTC
2015-05-26 00:02:00,49.0,48.0,-100.00,West,260,17.0,20.0,98,-99.99,,,-99.99,,2015-05-26 07:02:00,
2015-05-26 00:11:00,49.0,48.0,-100.00,West,260,17.0,20.0,98,-99.99,,,-99.99,,2015-05-26 07:11:00,
2015-05-26 00:21:00,49.0,48.0,-100.00,West,260,17.0,20.0,98,-99.99,,,-99.99,,2015-05-26 07:21:00,
2015-05-26 01:01:00,47.0,47.0,-100.00,WSW,249,14.0,19.0,100,-99.99,,,-99.99,,2015-05-26 08:01:00,
2015-05-26 01:11:00,47.0,47.0,-100.00,WSW,249,14.0,19.0,100,-99.99,,,-99.99,,2015-05-26 08:11:00,
2015-05-26 01:21:00,47.0,47.0,-100.00,WSW,249,14.0,19.0,100,-99.99,,,-99.99,,2015-05-26 08:21:00,
2015-05-26 02:01:00,46.0,46.0,-100.00,WSW,254,16.0,20.0,100,-99.99,,,-99.99,,2015-05-26 09:01:00,
2015-05-26 02:11:00,46.0,46.0,-100.00,WSW,254,16.0,20.0,100,-99.99,,,-99.99,,2015-05-26 09:11:00,
2015-05-26 03:02:00,45.0,45.0,-100.00,West,260,16.0,21.0,100,-99.99,,,-99.99,,2015-05-26 10:02:00,
2015-05-26 03:11:00,45.0,45.0,-100.00,West,260,16.0,21.0,100,-99.99,,,-99.99,,2015-05-26 10:11:00,
2015-05-26 03:21:00,45.0,45.0,-100.00,West,260,16.0,21.0,100,-99.99,,,-99.99,,2015-05-26 10:21:00,
2015-05-26 04:01:00,45.0,45.0,-100.00,West,261,12.0,19.0,100,-99.99,,,-99.99,,2015-05-26 11:01:00,
2015-05-26 04:11:00,45.0,45.0,-100.00,West,261,12.0,19.0,100,-99.99,,,-99.99,,2015-05-26 11:11:00,
2015-05-26 04:21:00,45.0,45.0,-100.00,West,261,12.0,19.0,100,-99.99,,,-99.99,,2015-05-26 11:21:00,
2015-05-26 05:02:00,45.0,45.0,-100.00,West,261,9.0,17.0,100,-99.99,,,-99.99,,2015-05-26 12:02:00,
2015-05-26 05:11:00,45.0,45.0,-100.00,West,261,9.0,17.0,100,-99.99,,,-99.99,,2015-05-26 12:11:00,
2015-05-26 05:21:00,45.0,45.0,-100.00,West,261,9.0,17.0,100,-99.99,,,-99.99,,2015-05-26 12:21:00,
2015-05-26 05:52:00,44.0,44.0,-100.00,West,261,10.0,12.0,100,-99.99,,,-99.99,,2015-05-26 12:52:00,
2015-05-26 06:02:00,44.0,44.0,-100.00,West,261,10.0,12.0,100,-99.99,,,-99.99,,2015-05-26 13:02:00,
2015-05-26 06:11:00,44.0,44.0,-100.00,West,261,10.0,12.0,100,-99.99,,,-99.99,,2015-05-26 13:11:00,
2015-05-26 06:21:00,44.0,44.0,-100.00,West,261,10.0,12.0,100,-99.99,,,-99.99,,2015-05-26 13:21:00,
2015-05-26 07:02:00,44.0,44.0,-100.00,West,259,10.0,12.0,100,-99.99,,,-99.99,,2015-05-26 14:02:00,
2015-05-26 07:11:00,44.0,44.0,-100.00,West,259,10.0,12.0,100,-99.99,,,-99.99,,2015-05-26 14:11:00,
2015-05-26 07:21:00,44.0,44.0,-100.00,West,259,10.0,12.0,100,-99.99,,,-99.99,,2015-05-26 14:21:00,
2015-05-26 07:52:00,45.0,45.0,-100.00,WSW,252,7.0,11.0,100,-99.99,,,-99.99,,2015-05-26 14:52:00,
2015-05-26 08:02:00,45.0,45.0,-100.00,WSW,252,7.0,11.0,100,-99.99,,,-99.99,,2015-05-26 15:02:00,
2015-05-26 08:11:00,45.0,45.0,-100.00,WSW,252,7.0,11.0,100,-99.99,,,-99.99,,2015-05-26 15:11:00,
2015-05-26 08:21:00,45.0,45.0,-100.00,WSW,252,7.0,11.0,100,-99.99,,,-99.99,,2015-05-26 15:21:00,
2015-05-26 08:52:00,47.0,47.0,-100.00,West,267,2.0,12.0,100,-99.99,,,-99.99,,2015-05-26 15:52:00,
2015-05-26 09:01:00,47.0,47.0,-100.00,West,267,2.0,12.0,100,-99.99,,,-99.99,,2015-05-26 16:01:00,
2015-05-26 09:11:00,47.0,47.0,-100.00,West,267,2.0,12.0,100,-99.99,,,-99.99,,2015-05-26 16:11:00,
2015-05-26 09:21:00,47.0,47.0,-100.00,West,267,2.0,12.0,100,-99.99,,,-99.99,,2015-05-26 16:21:00,
2015-05-26 10:02:00,51.0,51.0,-100.00,West,267,4.0,10.0,100,-99.99,,,-99.99,,2015-05-26 17:02:00,
2015-05-26 10:12:00,51.0,51.0,-100.00,West,267,4.0,10.0,100,-99.99,,,-99.99,,2015-05-26 17:12:00,
2015-05-26 10:22:00,51.0,51.0,-100.00,West,267,4.0,10.0,100,-99.99,,,-99.99,,2015-05-26 17:22:00,
2015-05-26 11:02:00,56.0,55.0,-100.00,WSW,255,3.0,10.0,95,-99.99,,,-99.99,,2015-05-26 18:02:00,
2015-05-26 11:11:00,56.0,55.0,-100.00,WSW,255,3.0,10.0,95,-99.99,,,-99.99,,2015-05-26 18:11:00,
2015-05-26 11:21:00,56.0,55.0,-100.00,WSW,255,3.0,10.0,95,-99.99,,,-99.99,,2015-05-26 18:21:00,
2015-05-26 12:01:00,60.0,52.0,-100.00,WSW,248,7.0,10.0,76,-99.99,,,-99.99,,2015-05-26 19:01:00,
2015-05-26 12:12:00,60.0,52.0,-100.00,WSW,248,7.0,10.0,76,-99.99,,,-99.99,,2015-05-26 19:12:00,
2015-05-26 12:21:00,60.0,52.0,-100.00,WSW,248,7.0,10.0,76,-99.99,,,-99.99,,2015-05-26 19:21:00,
2015-05-26 13:02:00,64.0,52.0,-100.00,WSW,250,7.0,11.0,66,-99.99,,,-99.99,,2015-05-26 20:02:00,
2015-05-26 13:11:00,64.0,52.0,-100.00,WSW,250,7.0,11.0,66,-99.99,,,-99.99,,2015-05-26 20:11:00,
2015-05-26 13:21:00,64.0,52.0,-100.00,WSW,250,7.0,11.0,66,-99.99,,,-99.99,,2015-05-26 20:21:00,
2015-05-26 14:02:00,67.0,52.0,-100.00,WSW,247,10.0,15.0,59,-99.99,,,-99.99,,2015-05-26 21:02:00,
2015-05-26 14:11:00,67.0,52.0,-100.00,WSW,247,10.0,15.0,59,-99.99,,,-99.99,,2015-05-26 21:11:00,
2015-05-26 14:21:00,67.0,52.0,-100.00,WSW,247,10.0,15.0,59,-99.99,,,-99.99,,2015-05-26 21:21:00,
2015-05-26 15:01:00,70.0,52.0,-100.00,SW,221,14.0,20.0,52,-99.99,,,-99.99,,2015-05-26 22:01:00,
2015-05-26 15:11:00,70.0,52.0,-100.00,SW,221,14.0,20.0,52,-99.99,,,-99.99,,2015-05-26 22:11:00,
2015-05-26 15:21:00,70.0,52.0,-100.00,SW,221,14.0,20.0,52,-99.99,,,-99.99,,2015-05-26 22:21:00,
2015-05-26 16:01:00,70.0,51.0,-100.00,SW,228,14.0,22.0,51,-99.99,,,-99.99,,2015-05-26 23:01:00,
2015-05-26 16:11:00,70.0,51.0,-100.00,SW,228,14.0,22.0,51,-99.99,,,-99.99,,2015-05-26 23:11:00,
2015-05-26 16:21:00,70.0,51.0,-100.00,SW,228,14.0,22.0,51,-99.99,,,-99.99,,2015-05-26 23:21:00,
2015-05-26 17:01:00,69.0,50.0,-100.00,SW,222,14.0,20.0,50,-99.99,,,-99.99,,2015-05-27 00:01:00,
2015-05-26 17:11:00,69.0,50.0,-100.00,SW,222,14.0,20.0,50,-99.99,,,-99.99,,2015-05-27 00:11:00,
2015-05-26 17:21:00,69.0,50.0,-100.00,SW,222,14.0,20.0,50,-99.99,,,-99.99,,2015-05-27 00:21:00,
2015-05-26 18:01:00,70.0,50.0,-100.00,SW,219,11.0,19.0,49,-99.99,,,-99.99,,2015-05-27 01:01:00,
2015-05-26 18:11:00,70.0,50.0,-100.00,SW,219,11.0,19.0,49,-99.99,,,-99.99,,2015-05-27 01:11:00,
2015-05-26 18:21:00,70.0,50.0,-100.00,SW,219,11.0,19.0,49,-99.99,,,-99.99,,2015-05-27 01:21:00,
2015-05-26 19:01:00,64.0,49.0,-100.00,SW,235,18.0,24.0,59,-99.99,,,-99.99,,2015-05-27 02:01:00,
2015-05-26 19:11:00,64.0,49.0,-100.00,SW,235,18.0,24.0,59,-99.99,,,-99.99,,2015-05-27 02:11:00,
2015-05-26 19:21:00,64.0,49.0,-100.00,SW,235,18.0,24.0,59,-99.99,,,-99.99,,2015-05-27 02:21:00,